DAL2627 KATL-KJAX

Flight info

Callsign DAL2627
Flight time 0h 43m
Altitude 31000
Route VRSTY3 NOKIE DUCHY OHDEA2
Aircraft A320/M-SDE3FGHIRWY/LB1

Departure

Time 2026-04-30 21:18
Airport Hartsfield Jackson Atlanta International Airport (KATL)

Arrival

Time 2026-04-30 22:02
Airport Jacksonville International Airport (KJAX)
Time Latitude Longitude Altitude Speed Heading
2026-04-30 20:54 33.63794 -84.43542 1035 ft 0 kts 271°
2026-04-30 21:10 33.63794 -84.43526 1035 ft 2 kts 271°
2026-04-30 21:10 33.63794 -84.43506 1035 ft 2 kts 271°
2026-04-30 21:10 33.63796 -84.43486 1035 ft 2 kts 229°
2026-04-30 21:11 33.63808 -84.43471 1035 ft 2 kts 227°
2026-04-30 21:11 33.63820 -84.43456 1035 ft 2 kts 194°
2026-04-30 21:11 33.63823 -84.43456 1035 ft 0 kts 194°
2026-04-30 21:12 33.63755 -84.43461 1035 ft 18 kts 180°
2026-04-30 21:13 33.63665 -84.43403 1035 ft 15 kts 103°
2026-04-30 21:13 33.63665 -84.43282 1035 ft 14 kts 90°
2026-04-30 21:13 33.63664 -84.43174 1035 ft 12 kts 90°
2026-04-30 21:13 33.63663 -84.43014 1035 ft 20 kts 90°
2026-04-30 21:14 33.63665 -84.42856 1035 ft 18 kts 90°
2026-04-30 21:14 33.63661 -84.42716 1036 ft 16 kts 95°
2026-04-30 21:14 33.63656 -84.42586 1036 ft 18 kts 90°
2026-04-30 21:14 33.63655 -84.42411 1036 ft 23 kts 90°
2026-04-30 21:15 33.63656 -84.42226 1036 ft 21 kts 90°
2026-04-30 21:15 33.63657 -84.42057 1036 ft 19 kts 90°
2026-04-30 21:15 33.63657 -84.41902 1035 ft 18 kts 90°
2026-04-30 21:15 33.63656 -84.41761 1035 ft 16 kts 90°
2026-04-30 21:16 33.63656 -84.41633 1035 ft 14 kts 90°
2026-04-30 21:16 33.63656 -84.41518 1035 ft 13 kts 90°
2026-04-30 21:16 33.63656 -84.41414 1035 ft 12 kts 90°
2026-04-30 21:16 33.63655 -84.41282 1035 ft 19 kts 90°
2026-04-30 21:17 33.63656 -84.41135 1035 ft 17 kts 90°
2026-04-30 21:17 33.63597 -84.41048 1035 ft 14 kts 169°
2026-04-30 21:17 33.63504 -84.41052 1035 ft 13 kts 205°
2026-04-30 21:17 33.63472 -84.41159 1034 ft 24 kts 270°
2026-04-30 21:18 33.63472 -84.41659 1034 ft 93 kts 269°
2026-04-30 21:18 33.63474 -84.42668 1035 ft 147 kts 270°
2026-04-30 21:18 33.63485 -84.43970 1496 ft 154 kts 278°
2026-04-30 21:18 33.63500 -84.45241 2227 ft 151 kts 276°
2026-04-30 21:19 33.63498 -84.46515 2853 ft 155 kts 275°
2026-04-30 21:19 33.63485 -84.47848 3348 ft 163 kts 275°
2026-04-30 21:19 33.63471 -84.49233 3801 ft 172 kts 275°
2026-04-30 21:19 33.63471 -84.50768 4086 ft 195 kts 274°
2026-04-30 21:20 33.63473 -84.52490 4361 ft 219 kts 274°
2026-04-30 21:20 33.63433 -84.54424 4727 ft 245 kts 264°
2026-04-30 21:20 33.62719 -84.56386 5148 ft 273 kts 230°
2026-04-30 21:20 33.61099 -84.57636 5869 ft 287 kts 196°
2026-04-30 21:21 33.59103 -84.57638 6667 ft 295 kts 163°
2026-04-30 21:21 33.57312 -84.56441 7542 ft 297 kts 142°
2026-04-30 21:21 33.54359 -84.52903 9292 ft 304 kts 133°
2026-04-30 21:22 33.52950 -84.50975 10064 ft 310 kts 133°
2026-04-30 21:22 33.48153 -84.44797 11427 ft 355 kts 137°
2026-04-30 21:23 33.46406 -84.42679 12151 ft 360 kts 138°
2026-04-30 21:23 33.44617 -84.40542 12864 ft 365 kts 138°
2026-04-30 21:23 33.40961 -84.36199 14242 ft 375 kts 139°
2026-04-30 21:24 33.39103 -84.33985 14846 ft 380 kts 139°
2026-04-30 21:24 33.37216 -84.31734 15432 ft 386 kts 139°
2026-04-30 21:24 33.35301 -84.29449 16009 ft 391 kts 139°
2026-04-30 21:24 33.33364 -84.27140 16592 ft 397 kts 139°
2026-04-30 21:25 33.29407 -84.22422 17739 ft 407 kts 140°
2026-04-30 21:25 33.27394 -84.20021 18292 ft 412 kts 140°
2026-04-30 21:25 33.25349 -84.17586 18779 ft 417 kts 140°
2026-04-30 21:26 33.21204 -84.12650 19791 ft 425 kts 141°
2026-04-30 21:26 33.19098 -84.10146 20306 ft 429 kts 141°
2026-04-30 21:27 33.14832 -84.05096 21320 ft 436 kts 142°
2026-04-30 21:27 33.12663 -84.02531 21829 ft 440 kts 142°
2026-04-30 21:27 33.10478 -83.99945 22329 ft 444 kts 143°
2026-04-30 21:28 33.05763 -83.95251 23334 ft 441 kts 154°
2026-04-30 21:28 33.03246 -83.93142 23783 ft 444 kts 154°
2026-04-30 21:28 32.98135 -83.88876 24507 ft 453 kts 154°
2026-04-30 21:29 32.95535 -83.86709 24867 ft 457 kts 154°
2026-04-30 21:29 32.87615 -83.80116 25931 ft 469 kts 154°
2026-04-30 21:30 32.82224 -83.75620 26590 ft 477 kts 154°
2026-04-30 21:31 32.73972 -83.68742 27568 ft 488 kts 154°
2026-04-30 21:31 32.68377 -83.64107 28233 ft 492 kts 153°
2026-04-30 21:32 32.62655 -83.59574 28821 ft 497 kts 155°
2026-04-30 21:32 32.59738 -83.57339 28904 ft 503 kts 155°
2026-04-30 21:32 32.53737 -83.52780 28915 ft 521 kts 155°
2026-04-30 21:33 32.44436 -83.45603 28862 ft 539 kts 154°
2026-04-30 21:34 32.38160 -83.40707 28898 ft 541 kts 153°
2026-04-30 21:34 32.28708 -83.33395 28926 ft 541 kts 154°
2026-04-30 21:35 32.22395 -83.28552 28938 ft 541 kts 154°
2026-04-30 21:35 32.16085 -83.23711 28891 ft 541 kts 154°
2026-04-30 21:36 32.09777 -83.18863 28925 ft 541 kts 154°
2026-04-30 21:37 31.98205 -83.10006 28902 ft 542 kts 154°
2026-04-30 21:37 31.91878 -83.05175 28896 ft 542 kts 154°
2026-04-30 21:38 31.85555 -83.00354 28878 ft 540 kts 154°
2026-04-30 21:38 31.79303 -82.95590 28577 ft 522 kts 154°
2026-04-30 21:39 31.76315 -82.93303 28444 ft 504 kts 154°
2026-04-30 21:39 31.73463 -82.91001 28314 ft 494 kts 148°
2026-04-30 21:39 31.70870 -82.88411 28062 ft 485 kts 146°
2026-04-30 21:39 31.68337 -82.85846 27644 ft 478 kts 146°
2026-04-30 21:40 31.65833 -82.83301 27186 ft 473 kts 146°
2026-04-30 21:40 31.63358 -82.80784 26733 ft 469 kts 146°
2026-04-30 21:40 31.60906 -82.78292 26287 ft 464 kts 146°
2026-04-30 21:40 31.58476 -82.75822 25817 ft 460 kts 146°
2026-04-30 21:41 31.56066 -82.73376 25377 ft 456 kts 146°
2026-04-30 21:41 31.53674 -82.70955 24951 ft 453 kts 146°
2026-04-30 21:41 31.51298 -82.68554 24526 ft 449 kts 146°
2026-04-30 21:41 31.48945 -82.66178 24100 ft 446 kts 146°
2026-04-30 21:42 31.46799 -82.63564 23844 ft 446 kts 131°
2026-04-30 21:42 31.45012 -82.60620 23623 ft 438 kts 130°
2026-04-30 21:42 31.43277 -82.57727 23395 ft 430 kts 130°
2026-04-30 21:42 31.41578 -82.54883 23136 ft 424 kts 129°
2026-04-30 21:43 31.39898 -82.52067 22874 ft 421 kts 129°
2026-04-30 21:43 31.38226 -82.49267 22603 ft 418 kts 129°
2026-04-30 21:43 31.36564 -82.46490 22344 ft 415 kts 129°
2026-04-30 21:43 31.34910 -82.43732 22089 ft 413 kts 129°
2026-04-30 21:44 31.33263 -82.40988 21831 ft 411 kts 129°
2026-04-30 21:44 31.31629 -82.38263 21583 ft 408 kts 129°
2026-04-30 21:44 31.30005 -82.35557 21334 ft 405 kts 129°
2026-04-30 21:44 31.28393 -82.32874 20971 ft 402 kts 129°
2026-04-30 21:45 31.26783 -82.30202 20482 ft 403 kts 129°
2026-04-30 21:45 31.25166 -82.27524 19989 ft 404 kts 129°
2026-04-30 21:45 31.23544 -82.24836 19492 ft 405 kts 128°
2026-04-30 21:45 31.21921 -82.22149 19000 ft 405 kts 128°
2026-04-30 21:46 31.20302 -82.19467 18658 ft 401 kts 128°
2026-04-30 21:46 31.18705 -82.16818 18289 ft 398 kts 128°
2026-04-30 21:46 31.17118 -82.14188 17876 ft 395 kts 128°
2026-04-30 21:46 31.15544 -82.11578 17472 ft 392 kts 128°
2026-04-30 21:47 31.13980 -82.08989 17062 ft 389 kts 128°
2026-04-30 21:47 31.12425 -82.06418 16665 ft 386 kts 128°
2026-04-30 21:47 31.10885 -82.03875 16276 ft 383 kts 128°
2026-04-30 21:47 31.09353 -82.01346 15895 ft 380 kts 128°
2026-04-30 21:48 31.07831 -81.98835 15506 ft 377 kts 128°
2026-04-30 21:48 31.06320 -81.96347 15153 ft 374 kts 128°
2026-04-30 21:48 31.04821 -81.93882 14784 ft 371 kts 128°
2026-04-30 21:48 31.03331 -81.91432 14428 ft 369 kts 127°
2026-04-30 21:49 31.01855 -81.89001 14066 ft 365 kts 128°
2026-04-30 21:49 31.00399 -81.86607 13400 ft 360 kts 127°
2026-04-30 21:49 30.98957 -81.84238 12644 ft 356 kts 127°
2026-04-30 21:49 30.97528 -81.81895 11887 ft 353 kts 127°
2026-04-30 21:50 30.96122 -81.79593 11358 ft 343 kts 127°
2026-04-30 21:50 30.94765 -81.77366 10924 ft 331 kts 127°
2026-04-30 21:50 30.93455 -81.75217 10508 ft 320 kts 127°
2026-04-30 21:50 30.92186 -81.73138 10106 ft 310 kts 127°
2026-04-30 21:51 30.90956 -81.71127 9680 ft 302 kts 127°
2026-04-30 21:51 30.89731 -81.69131 9265 ft 303 kts 127°
2026-04-30 21:51 30.88507 -81.67132 8847 ft 304 kts 127°
2026-04-30 21:51 30.87280 -81.65126 8423 ft 305 kts 127°
2026-04-30 21:52 30.86045 -81.63104 7979 ft 309 kts 127°
2026-04-30 21:52 30.84789 -81.61048 7599 ft 311 kts 127°
2026-04-30 21:52 30.83543 -81.59011 7196 ft 311 kts 127°
2026-04-30 21:52 30.82298 -81.56980 6846 ft 307 kts 127°
2026-04-30 21:53 30.81059 -81.54957 6439 ft 306 kts 127°
2026-04-30 21:53 30.79824 -81.52944 6113 ft 304 kts 127°
2026-04-30 21:53 30.78598 -81.50948 5813 ft 302 kts 127°
2026-04-30 21:53 30.77383 -81.48974 5503 ft 299 kts 127°
2026-04-30 21:54 30.76176 -81.47015 5194 ft 296 kts 127°
2026-04-30 21:54 30.74985 -81.45083 4791 ft 292 kts 127°
2026-04-30 21:54 30.73808 -81.43178 4271 ft 288 kts 127°
2026-04-30 21:54 30.72649 -81.41301 3673 ft 285 kts 128°
2026-04-30 21:55 30.71237 -81.39738 3002 ft 278 kts 152°
2026-04-30 21:55 30.69461 -81.38978 2331 ft 269 kts 176°
2026-04-30 21:55 30.67652 -81.39090 2074 ft 260 kts 197°
2026-04-30 21:55 30.65912 -81.39687 2005 ft 257 kts 199°
2026-04-30 21:56 30.64238 -81.40273 2009 ft 245 kts 201°
2026-04-30 21:56 30.62663 -81.40825 2007 ft 228 kts 200°
2026-04-30 21:56 30.61201 -81.41336 2009 ft 211 kts 202°
2026-04-30 21:56 30.59847 -81.41811 2011 ft 196 kts 203°
2026-04-30 21:57 30.58673 -81.42463 2039 ft 183 kts 219°
2026-04-30 21:57 30.57808 -81.43495 2020 ft 175 kts 240°
2026-04-30 21:57 30.57301 -81.44769 2018 ft 177 kts 253°
2026-04-30 21:57 30.56896 -81.46109 2014 ft 174 kts 253°
2026-04-30 21:58 30.56497 -81.47426 2022 ft 174 kts 253°
2026-04-30 21:58 30.56085 -81.48783 2014 ft 179 kts 251°
2026-04-30 21:58 30.55675 -81.50132 2028 ft 177 kts 252°
2026-04-30 21:58 30.55266 -81.51483 2014 ft 177 kts 253°
2026-04-30 21:59 30.54853 -81.52830 2035 ft 179 kts 252°
2026-04-30 21:59 30.54433 -81.54204 2025 ft 180 kts 252°
2026-04-30 21:59 30.54020 -81.55568 1945 ft 179 kts 252°
2026-04-30 22:00 30.53173 -81.58362 1513 ft 193 kts 253°
2026-04-30 22:00 30.52276 -81.61303 1013 ft 187 kts 253°
2026-04-30 22:00 30.51867 -81.62631 821 ft 171 kts 252°
2026-04-30 22:01 30.51480 -81.63907 618 ft 158 kts 250°
2026-04-30 22:01 30.51136 -81.65047 389 ft 142 kts 248°
2026-04-30 22:01 30.50804 -81.66117 236 ft 138 kts 250°
2026-04-30 22:01 30.50486 -81.67180 62 ft 139 kts 248°
2026-04-30 22:02 30.50192 -81.68126 38 ft 102 kts 251°
2026-04-30 22:02 30.50016 -81.68714 37 ft 53 kts 250°
2026-04-30 22:02 30.49917 -81.69020 37 ft 34 kts 248°
2026-04-30 22:02 30.49797 -81.69197 36 ft 26 kts 197°
2026-04-30 22:03 30.49631 -81.69141 35 ft 26 kts 151°
2026-04-30 22:03 30.49474 -81.69036 35 ft 25 kts 149°
2026-04-30 22:03 30.49374 -81.68935 35 ft 16 kts 90°
2026-04-30 22:03 30.49384 -81.68813 35 ft 14 kts 85°
2026-04-30 22:04 30.49366 -81.68713 35 ft 12 kts 146°
2026-04-30 22:04 30.49296 -81.68669 35 ft 12 kts 115°
2026-04-30 22:04 30.49283 -81.68614 35 ft 0 kts 103°